TimeMST,TemperatureF,Dew PointF,Humidity,Sea Level PressureIn,VisibilityMPH,Wind Direction,Wind SpeedMPH,Gust SpeedMPH,PrecipitationIn,Events,Conditions,WindDirDegrees,DateUTC
12:53 AM,48.9,34.0,56,29.92,10.0,WSW,10.4,-,N/A,,Overcast,250,2013-11-08 07:53:00
1:53 AM,48.0,37.0,66,29.95,10.0,WSW,18.4,24.2,N/A,,Overcast,240,2013-11-08 08:53:00
2:53 AM,46.9,37.0,68,29.98,10.0,West,18.4,26.5,N/A,,Overcast,260,2013-11-08 09:53:00
3:53 AM,45.0,36.0,71,30.00,10.0,SW,15.0,-,N/A,,Overcast,230,2013-11-08 10:53:00
4:53 AM,44.1,36.0,73,30.01,10.0,WSW,16.1,23.0,N/A,,Overcast,240,2013-11-08 11:53:00
5:53 AM,44.1,34.0,68,30.02,10.0,WSW,15.0,-,N/A,,Overcast,240,2013-11-08 12:53:00
6:53 AM,43.0,34.0,71,30.04,10.0,SW,13.8,-,0.00,,Overcast,230,2013-11-08 13:53:00
7:53 AM,43.0,28.9,58,30.06,10.0,WSW,15.0,-,N/A,,Overcast,240,2013-11-08 14:53:00
8:53 AM,43.0,28.0,56,30.08,10.0,WSW,12.7,-,N/A,,Overcast,240,2013-11-08 15:53:00
9:53 AM,44.1,28.9,55,30.08,10.0,WSW,13.8,-,N/A,,Overcast,250,2013-11-08 16:53:00
10:53 AM,46.0,28.0,50,30.09,10.0,WSW,13.8,-,N/A,,Overcast,250,2013-11-08 17:53:00
11:53 AM,46.9,30.9,54,30.07,10.0,WSW,11.5,-,N/A,,Overcast,250,2013-11-08 18:53:00
12:53 PM,48.9,26.1,41,30.06,10.0,West,10.4,-,N/A,,Mostly Cloudy,270,2013-11-08 19:53:00
1:53 PM,48.0,26.1,42,30.06,10.0,West,11.5,18.4,N/A,,Mostly Cloudy,280,2013-11-08 20:53:00
2:53 PM,48.9,27.0,43,30.05,10.0,WNW,10.4,-,N/A,,Mostly Cloudy,290,2013-11-08 21:53:00
3:53 PM,48.0,27.0,44,30.04,10.0,West,10.4,-,N/A,,Scattered Clouds,270,2013-11-08 22:53:00
4:53 PM,46.9,27.0,46,30.05,10.0,West,8.1,-,N/A,,Overcast,280,2013-11-08 23:53:00
5:53 PM,45.0,26.1,48,30.06,10.0,West,5.8,-,N/A,,Overcast,280,2013-11-09 00:53:00
6:53 PM,44.1,27.0,51,30.07,10.0,WSW,5.8,-,N/A,,Mostly Cloudy,250,2013-11-09 01:53:00
7:53 PM,41.0,28.0,60,30.09,10.0,SW,5.8,-,N/A,,Partly Cloudy,230,2013-11-09 02:53:00
8:53 PM,39.0,27.0,62,30.11,10.0,WSW,4.6,-,N/A,,Clear,240,2013-11-09 03:53:00
9:53 PM,35.1,26.1,70,30.13,10.0,SSE,3.5,-,N/A,,Clear,150,2013-11-09 04:53:00
10:53 PM,30.9,24.1,76,30.15,10.0,SSW,5.8,-,N/A,,Clear,200,2013-11-09 05:53:00
11:53 PM,30.0,24.1,79,30.15,10.0,SSW,5.8,-,N/A,,Clear,210,2013-11-09 06:53:00